Regional Weather Roundup
Issued by NWS State College, PA

Home | Current Version | Previous Version | Graphics & Text | Print | Product List | Glossary On
Versions: 1 2 3 4 5 6 7 8 9 10 11 12 13 14 15 16 17 18 19 20 21 22 23 24 25 26 27 28 29 30 31 32 33 34 35 36 37 38 39 40 41 42 43 44 45 46 47 48 49 50
000
ASUS41 KCTP 280610
RWRCTP

REGIONAL WEATHER ROUNDUP
NATIONAL WEATHER SERVICE STATE COLLEGE PA
200 AM EDT FRI AUG 28 2015

Note: "fair" indicates few or no clouds below 12,000 feet with no
significant weather and/or obstructions to visibility.

* = STATION THAT DOES NOT REPORT PRECIPITATION /E.G. RAIN...SNOW...ETC/
    THUNDER OR FOG.

PAZ002>004-007>009-013>016-020>023-029>032-280700-
WESTERN PENNSYLVANIA

CITY           SKY/WX    TMP DP  RH WIND       PRES   REMARKS
ERIE           FAIR      56  51  84 S5        30.18F
MEADVILLE      FAIR      55  51  86 CALM      30.20F
FRANKLIN*      FAIR      52  48  87 CALM      30.22F
NEW CASTLE     FAIR      53  53 100 CALM      30.21S FOG
BEAVER COUNTY  NOT AVBL
BUTLER*        FAIR      54  52  94 CALM      30.21F
PITTSBURGH INT FAIR      60  55  83 CALM      30.18F
PITTSBURGH     FAIR      60  53  77 N3        30.18F
INDIANA*       PTCLDY    55  54  94 CALM      30.23S
LATROBE        NOT AVBL
WASHINGTON CO* MOCLDY    52  50  93 CALM      30.19S VSB 1/4
$$

PAZ004>006-010>012-017>019-024>028-033>037-041-042-045-046-049>053-280700-
CENTRAL PENNSYLVANIA

CITY           SKY/WX    TMP DP  RH WIND       PRES   REMARKS
BRADFORD       CLOUDY    44  42  93 CALM      30.21S FOG
DUBOIS         FAIR      53  50  89 CALM      30.20F
CLEARFIELD     FAIR      54  51  90 N3        30.21S
JOHNSTOWN      FAIR      58  52  80 CALM      30.21F
ALTOONA        FAIR      54  51  90 SW3       30.20F
STATE COLLEGE  FAIR      61  55  80 N3        30.19F
WILLIAMSPORT   FAIR      61  57  87 CALM      30.17R
SELINSGROVE    MOCLDY    60  59  96 CALM      30.17S
FT INDIANTOWN  CLOUDY    59  57  92 CALM      30.16F
CAPITAL CITY   MOCLDY    60  56  86 SW5       30.17R
HARRISBURG     FAIR      63  58  83 CALM      30.16S
YORK           FAIR      54  52  93 CALM      30.17S
$$

PAZ038>040-043-044-047-048-054-055-060>062-067>071-280700-
EASTERN PENNSYLVANIA

CITY           SKY/WX    TMP DP  RH WIND       PRES   REMARKS
SCRANTON       FAIR      57  52  83 E6        30.18R
MOUNT POCONO   FAIR      50  48  93 CALM      30.19S
ALLENTOWN      FAIR      58  53  84 CALM      30.16F
QUAKERTOWN*    FAIR      54  52  94 CALM      30.17S
READING        FAIR      58  55  90 CALM      30.16S
LANCASTER      CLOUDY    60  56  86 CALM      30.17S
COATESVILLE    FAIR      57  55  94 W3        30.18S
POTTSTOWN      FAIR      56  54  93 CALM      30.18S
BLUE BELL      FAIR      55  55 100 CALM      30.16S
DOYLESTOWN     FAIR      56  55  97 CALM      30.15F
WILLOW GROVE   NOT AVBL
NORTH PHILA    FAIR      63  54  72 CALM      30.16S
PHILADELPHIA   FAIR      67  54  63 N6        30.15F
$$


USA.gov is the U.S. government's official web portal to all federal, state and local government web resources and services.